Location: S�deilles
(46.7500°N, 6.9329°E)
Time: 05:26:10
(UTC+00:00)

ASTEX 1 - Pass Details

Date: 08 March 2021
Orbit: 721 x 742 km, 92.7° (Epoch: 22 April)

Event Time Altitude Azimuth Distance (km) Brightness Sun altitude
Rises 18:44:44 0° 11° (N) 3,147 6.7 -13.9°
Reaches altitude 10° 18:47:08 10° 18° (NNE) 2,221 5.8 -14.3°
Maximum altitude 18:51:49 44° 90° (E) 992 3.6 -15.1°
Drops below altitude 10° 18:56:29 10° 163° (SSE) 2,205 5.6 -15.9°
Sets 18:58:51 0° 170° (S) 3,123 6.5 -16.3°
